Location: Stockholm
(59.3330°N, 18.0500°E)
Time: 15:26:48
(UTC+02:00)

XW-2A - Visible Passes

Search period start: 01 April 2023 00:00
Search period end: 11 April 2023 00:00
Orbit: 290 x 295 km, 97.1° (Epoch: 01 April)

Date Brightness Start Highest point End Pass type
(mag) Time Alt. Az. Time Alt. Az. Time Alt. Az.
01 Apr ? 21:34:50 42° ENE 21:34:52 42° ENE 21:37:14 10° N visible
01 Apr ? 23:05:13 12° WNW 23:05:13 12° WNW 23:05:59 10° WNW visible
02 Apr ? 21:40:52 51° ENE 21:40:55 51° ENE 21:43:19 10° N visible
02 Apr ? 23:11:13 11° W 23:11:13 11° W 23:11:37 10° WNW visible
03 Apr ? 21:46:11 60° E 21:46:15 60° ENE 21:48:40 10° N visible
04 Apr ? 21:50:46 68° E 21:50:52 70° ENE 21:53:18 10° NNW visible
05 Apr ? 21:54:39 74° ESE 21:54:47 79° ENE 21:57:12 10° NNW visible
06 Apr ? 21:57:47 73° SSE 21:57:58 87° ENE 22:00:24 10° NNW visible
07 Apr ? 22:00:13 69° S 22:00:27 87° WSW 22:02:53 10° NNW visible
08 Apr ? 22:01:56 63° S 22:02:14 82° WSW 22:04:39 10° NNW visible
09 Apr ? 22:02:55 57° S 22:03:17 80° WSW 22:05:42 10° NNW visible
10 Apr ? 22:03:11 52° S 22:03:39 80° WSW 22:06:03 10° NNW visible
